CFG2290 EDDF-FACT

Flight info

Callsign CFG2290
Flight time N/A
Altitude 37000
Route ANEKI2L ANEKI Y163 NATOR DCT TRA DCT RIPUS DCT GERSA DCT SOSON DCT ODINA DCT PIDAD DCT TALEP DCT VAREK DCT ERPIN DCT ETOIL DCT CIRTA UA605 TILMA/N0466F390 UA605 DJA UB730 DIR UA607 FL UA403 BZ/N0462F410 DCT KSA UT943 IMVEX/N0457F400 UT943 UNLOK/N0458F410 UT943 VEDRY/N0457F400 UN185 OKLOK DCT KODES DCT CTV
Aircraft A339/H-SADE1E2E3GHIJ3J5M1P2RWXY/LB2D1

Departure

Time 2026-04-16 04:40
Airport Frankfurt Main Airport (EDDF)

Arrival

Time N/A
Airport Cape Town International Airport (FACT)
Time Latitude Longitude Altitude Speed Heading
2026-04-15 21:51 50.04751 8.58172 370 ft 0 kts 159°
2026-04-16 04:30 50.04772 8.58160 368 ft 4 kts 159°
2026-04-16 04:31 50.04794 8.58145 365 ft 4 kts 173°
2026-04-16 04:31 50.04814 8.58141 367 ft 4 kts 217°
2026-04-16 04:31 50.04830 8.58166 365 ft 4 kts 248°
2026-04-16 04:31 50.04836 8.58192 365 ft 0 kts 249°
2026-04-16 04:34 50.04836 8.58191 365 ft 1 kts 249°
2026-04-16 04:35 50.04827 8.58155 365 ft 7 kts 249°
2026-04-16 04:35 50.04798 8.58033 368 ft 15 kts 249°
2026-04-16 04:35 50.04782 8.57972 365 ft 0 kts 249°
2026-04-16 04:37 50.04772 8.57953 370 ft 7 kts 230°
2026-04-16 04:37 50.04706 8.57953 367 ft 12 kts 150°
2026-04-16 04:37 50.04625 8.58013 367 ft 12 kts 160°
2026-04-16 04:38 50.04553 8.58052 372 ft 9 kts 161°
2026-04-16 04:38 50.04504 8.58078 375 ft 6 kts 161°
2026-04-16 04:38 50.04454 8.58104 373 ft 10 kts 161°
2026-04-16 04:38 50.04393 8.58102 376 ft 9 kts 206°
2026-04-16 04:39 50.04347 8.58005 372 ft 21 kts 245°
2026-04-16 04:39 50.04194 8.57393 375 ft 99 kts 248°
2026-04-16 04:39 50.03864 8.56041 366 ft 162 kts 249°
2026-04-16 04:39 50.03582 8.54866 601 ft 174 kts 249°
2026-04-16 04:40 50.03114 8.53015 1292 ft 181 kts 247°
2026-04-16 04:40 50.02662 8.51183 2134 ft 176 kts 248°
2026-04-16 04:40 50.01898 8.49611 2641 ft 190 kts 214°
2026-04-16 04:40 50.00615 8.48827 3080 ft 206 kts 189°
2026-04-16 04:41 49.99134 8.48797 3519 ft 218 kts 165°
2026-04-16 04:41 49.97776 8.49887 4163 ft 220 kts 137°
2026-04-16 04:41 49.96902 8.51835 4792 ft 222 kts 115°
2026-04-16 04:41 49.95922 8.53790 5051 ft 243 kts 139°
2026-04-16 04:42 49.94361 8.55025 5238 ft 262 kts 165°
2026-04-16 04:42 49.92509 8.55130 5661 ft 270 kts 189°
2026-04-16 04:42 49.90674 8.54518 6330 ft 271 kts 193°
2026-04-16 04:42 49.88797 8.53975 6956 ft 274 kts 188°
2026-04-16 04:43 49.86890 8.53718 7548 ft 277 kts 183°
2026-04-16 04:43 49.84928 8.53692 8178 ft 279 kts 179°
2026-04-16 04:43 49.82978 8.53791 8797 ft 282 kts 178°
2026-04-16 04:43 49.81004 8.53940 9421 ft 285 kts 178°
2026-04-16 04:44 49.79010 8.54101 10059 ft 288 kts 178°
2026-04-16 04:44 49.76986 8.54084 10488 ft 296 kts 185°
2026-04-16 04:44 49.74868 8.53796 10657 ft 314 kts 186°
2026-04-16 04:44 49.72628 8.53469 10816 ft 332 kts 186°
2026-04-16 04:45 49.70293 8.53138 11209 ft 339 kts 186°
2026-04-16 04:45 49.67913 8.52813 11761 ft 342 kts 186°
2026-04-16 04:45 49.65734 8.52522 12241 ft 346 kts 185°
2026-04-16 04:45 49.63292 8.52199 12781 ft 349 kts 185°
2026-04-16 04:46 49.60864 8.51879 13316 ft 352 kts 185°
2026-04-16 04:46 49.58409 8.51556 13853 ft 356 kts 185°
2026-04-16 04:46 49.55926 8.51228 14339 ft 359 kts 185°
2026-04-16 04:46 49.53419 8.50897 14800 ft 363 kts 185°
2026-04-16 04:47 49.50869 8.50562 15277 ft 366 kts 186°
2026-04-16 04:47 49.48318 8.50226 15731 ft 369 kts 186°
2026-04-16 04:47 49.45745 8.49888 16208 ft 372 kts 186°
2026-04-16 04:47 49.43145 8.49547 16657 ft 376 kts 186°
2026-04-16 04:48 49.40490 8.49199 17132 ft 379 kts 186°
2026-04-16 04:48 49.37852 8.48854 17584 ft 383 kts 186°
2026-04-16 04:48 49.35185 8.48505 18043 ft 386 kts 186°
2026-04-16 04:48 49.32493 8.48153 18507 ft 389 kts 186°
2026-04-16 04:49 49.29784 8.47800 18912 ft 392 kts 186°
2026-04-16 04:49 49.27013 8.47440 19331 ft 395 kts 186°
2026-04-16 04:49 49.24264 8.47082 19758 ft 398 kts 186°
2026-04-16 04:49 49.21567 8.46731 20155 ft 401 kts 186°
2026-04-16 04:50 49.18750 8.46363 20583 ft 403 kts 186°
2026-04-16 04:50 49.15943 8.45998 20998 ft 406 kts 186°
2026-04-16 04:50 49.13155 8.45636 21411 ft 409 kts 186°
2026-04-16 04:50 49.10302 8.45265 21823 ft 413 kts 186°
2026-04-16 04:51 49.07426 8.44890 22255 ft 415 kts 186°
2026-04-16 04:51 49.04573 8.44191 22647 ft 417 kts 194°
2026-04-16 04:51 49.01726 8.43168 23057 ft 421 kts 194°
2026-04-16 04:51 48.98863 8.42146 23470 ft 424 kts 194°
2026-04-16 04:52 48.95981 8.41132 23879 ft 427 kts 194°
2026-04-16 04:52 48.93063 8.40114 24233 ft 430 kts 194°
2026-04-16 04:52 48.90164 8.39106 24568 ft 434 kts 194°
2026-04-16 04:52 48.87209 8.38082 24903 ft 437 kts 194°
2026-04-16 04:53 48.84225 8.37049 25249 ft 441 kts 194°
2026-04-16 04:53 48.81221 8.36010 25580 ft 444 kts 194°
2026-04-16 04:53 48.78195 8.34965 25903 ft 448 kts 194°
2026-04-16 04:53 48.75155 8.33879 26231 ft 451 kts 195°
2026-04-16 04:54 48.72089 8.32751 26558 ft 454 kts 195°
2026-04-16 04:54 48.69010 8.31612 26890 ft 457 kts 195°
2026-04-16 04:54 48.65904 8.30469 27187 ft 461 kts 195°
2026-04-16 04:54 48.62770 8.29323 27509 ft 465 kts 195°
2026-04-16 04:55 48.59618 8.28175 27833 ft 467 kts 195°
2026-04-16 04:55 48.56445 8.27024 28139 ft 471 kts 195°
2026-04-16 04:55 48.53243 8.25867 28433 ft 474 kts 195°
2026-04-16 04:55 48.50011 8.25084 28690 ft 479 kts 185°
2026-04-16 04:56 48.46670 8.25018 28983 ft 482 kts 176°
2026-04-16 04:56 48.43334 8.25669 29290 ft 484 kts 169°
2026-04-16 04:56 48.39996 8.26533 29556 ft 488 kts 169°
2026-04-16 04:56 48.37727 8.27106 29729 ft 490 kts 170°
2026-04-16 04:57 48.33255 8.28212 30135 ft 494 kts 170°
2026-04-16 04:57 48.29845 8.29040 30412 ft 497 kts 170°
2026-04-16 04:57 48.26424 8.29866 30675 ft 500 kts 170°
2026-04-16 04:57 48.22972 8.30697 30930 ft 502 kts 170°
2026-04-16 04:58 48.19507 8.31531 31202 ft 505 kts 170°
2026-04-16 04:58 48.17196 8.32087 31367 ft 507 kts 170°
2026-04-16 04:58 48.13703 8.32930 31634 ft 510 kts 170°
2026-04-16 04:58 48.10208 8.33778 31866 ft 513 kts 169°
2026-04-16 04:59 48.06682 8.34635 32124 ft 516 kts 169°
2026-04-16 04:59 48.03138 8.35493 32366 ft 518 kts 169°
2026-04-16 04:59 47.99555 8.36359 32603 ft 521 kts 169°
2026-04-16 04:59 47.95976 8.37222 32784 ft 524 kts 169°
2026-04-16 05:00 47.92347 8.38096 32995 ft 526 kts 169°
2026-04-16 05:00 47.88723 8.38966 33185 ft 528 kts 169°
2026-04-16 05:00 47.85082 8.39840 33342 ft 530 kts 169°
2026-04-16 05:00 47.81523 8.40747 33424 ft 496 kts 172°
2026-04-16 05:01 47.78141 8.41816 33296 ft 503 kts 165°
2026-04-16 05:01 47.74719 8.42964 33047 ft 517 kts 165°
2026-04-16 05:01 47.71120 8.44271 32584 ft 533 kts 163°
2026-04-16 05:01 47.67493 8.45717 31952 ft 547 kts 162°
2026-04-16 05:02 47.63874 8.47307 31119 ft 548 kts 160°
2026-04-16 05:02 47.60260 8.49059 30117 ft 546 kts 159°
2026-04-16 05:02 47.56692 8.50976 28793 ft 544 kts 156°
2026-04-16 05:02 47.53198 8.53057 27355 ft 542 kts 155°
2026-04-16 05:03 47.49754 8.55332 25808 ft 540 kts 152°
2026-04-16 05:03 47.46390 8.57797 24174 ft 537 kts 150°
2026-04-16 05:03 47.43123 8.60452 22165 ft 536 kts 148°
2026-04-16 05:04 47.36908 8.66393 17831 ft 535 kts 143°
2026-04-16 05:04 47.33952 8.69733 15332 ft 534 kts 141°
2026-04-16 05:04 47.31103 8.73265 12683 ft 536 kts 139°
2026-04-16 05:04 47.28320 8.76933 9919 ft 538 kts 137°
2026-04-16 05:05 47.25592 8.80676 6938 ft 534 kts 136°
2026-04-16 05:05 47.24320 8.82461 5471 ft 0 kts 136°